Location: Bas-Clignon
(44.2000°N, 6.6333°E)
Time: 03:05:30
(UTC+00:00)

USA 281 - Pass Details

Date: 03 February 2023
Orbit: 1079 x 1080 km, 106.0° (Epoch: 19 March)

Event Time Altitude Azimuth Distance (km) Brightness Sun altitude
Rises 17:06:45 0° 19° (NNE) 3,889 5.8 -4.4°
Reaches altitude 10° 17:09:21 10° 14° (NNE) 2,930 5.2 -4.8°
Maximum altitude 17:15:34 47° 304° (WNW) 1,408 4.2 -5.9°
Drops below altitude 10° 17:21:46 10° 233° (SW) 2,915 6.8 -6.9°
Sets 17:24:21 0° 227° (SW) 3,867 7.4 -7.4°
